Regional Weather Roundup
Issued by NWS Raleigh/Durham, NC

Home | Current Version | Previous Version | Text Only | Print | Product List | Glossary On
Versions: 1 2 3 4 5 6 7 8 9 10 11 12 13 14 15 16 17 18 19 20 21 22 23 24 25 26 27 28 29 30 31 32 33 34 35 36 37 38 39 40 41 42 43 44 45 46 47 48 49 50
000
ASUS42 KRAH 301210
RWRRAH
NORTH CAROLINA WEATHER ROUNDUP
NATIONAL WEATHER SERVICE RALEIGH NC
800 AM EDT FRI SEP 30 2016

NOTE: "FAIR" INDICATES FEW OR NO CLOUDS BELOW 12,000 FEET WITH NO
SIGNIFICANT WEATHER AND/OR OBSTRUCTIONS TO VISIBILITY.

NCZ001-053-055-056-065-067-301300-
WESTERN NORTH CAROLINA

CITY           SKY/WX    TMP DP  RH WIND       PRES   REMARKS
ASHEVILLE      CLEAR     50  46  86 NW5       30.03R
JEFFERSON      CLOUDY    56  56  99 CALM      30.04S FOG
MORGANTON      FOG       61  61 100 CALM      30.02F VSB 1/4
HICKORY        FOG       62  62 100 CALM      29.98S VSB 1/4
RUTHERFORDTON  CLEAR     55  55 100 W3        29.99R
MOUNT AIRY     CLOUDY    68  66  93 E6        30.01S
BOONE          MOCLDY    55  55 100 CALM      30.04F
$$

NCZ021-022-025-041-071-084-088-301300-
CENTRAL NORTH CAROLINA

CITY           SKY/WX    TMP DP  RH WIND       PRES   REMARKS
CHARLOTTE      PTCLDY    68  64  87 SE9       29.98S FOG
GREENSBORO     MOCLDY    71  70  96 E9        29.98F
WINSTON-SALEM  CLOUDY    70  67  90 SE5       29.99S
RALEIGH-DURHAM CLOUDY    73  71  93 SE8       30.01S
FORT BRAGG     FOG      N/A N/A N/A VRB7        N/A  VSB 1/2
FAYETTEVILLE   FOG       73  71  93 E7        29.98R VSB 1/4
BURLINGTON     CLOUDY    72  72 100 E3        29.99S FOG
LAURINBURG     FOG       72  72 100 S6        29.98S VSB 1/4
$$

NCZ011-015-027-028-043-044-047-080-103-301300-
NORTHEASTERN NORTH CAROLINA

CITY           SKY/WX    TMP DP  RH WIND       PRES   REMARKS
ROCKY MT-WILSO FOG       72  72 100 NE3       30.03R VSB 1/4
GREENVILLE     HVY RAIN  72  72 100 E3        30.05R VSB 1/4
WASHINGTON     FOG       70  70  99 E3        30.03S VSB 1
ELIZABETH CITY CLOUDY    73  72  96 NE6       30.06R
MANTEO         SUNNY     70  70 100 CALM      30.05S
CAPE HATTERAS  SUNNY     76  74  93 E5        30.04S
$$

NCZ078-087-090-091-093-098-101-301300-
SOUTHEASTERN NORTH CAROLINA

CITY           SKY/WX    TMP DP  RH WIND       PRES   REMARKS
LUMBERTON      CLOUDY    72  72 100 CALM      29.97S FOG
GOLDSBORO      CLOUDY    72  72 100 E8        29.99S FOG
KINSTON        FOG       72  72 100 NE3       30.03R VSB 1/2
KENANSVILLE    PTSUNNY   70  70 100 CALM      30.01R FOG
NEW BERN       MOSUNNY   71  70  96 CALM      30.03S
CHERRY POINT   PTSUNNY   72  70  93 SE5       30.04R
BEAUFORT       LGT RAIN  77  74  90 CALM      30.03R
JACKSONVILLE   PTSUNNY   76  73  91 E5        30.01R
WILMINGTON     TSTM      71  70  96 W22       30.01R VSB 1/4
$$




USA.gov is the U.S. government's official web portal to all federal, state and local government web resources and services.